[[{"header":{"parameterUnit":"m.s-1","parameterCategory":1,"la1":30.2991,"la2":30.254,"lo1":-89.0895,"lo2":-89.0444,"dy":0.0017,"dx":0.0017,"nx":28,"ny":28,"refTime":"2024-03-14T09:00:00:Z","depth":0,"parameterNumber":2,"parameterNumberName":"U-component_of_WINDS"},"data":[0,0,0,0,0,0,0,0,0,0,0,0,0,0,0,0,0,0,0,0,0,0,0,0,0,0,0,0,0,0,0,0,0,0,0,0,0,0,0,0,0,0,0,0,0,0,0,0,0,0,0,0,0,0,0,0,0,0,0.8479,0.8479,0,0.8495,0.8495,0.8495,0.8459,0.8458,0.8457,0.8456,0.8474,0.8476,0.8477,0,0,0,0,0,0,0,0,0,0,0,0,0,0.842,0.8422,0.8479,0.8479,0.8479,0.8495,0.8495,0.8495,0.8459,0.8458,0.8456,0.8455,0.8474,0.8476,0.8478,0,0,0,0,0,0,0,0,0,0,0,0,0,0.8442,0.8422,0.8479,0.8463,0.8462,0.8495,0.8495,0.8495,0.846,0.8458,0.8456,0.8454,0.8473,0.8475,0.8478,0.8527,0,0,0.8485,0.8486,0,0,0,0,0,0,0,0,0.8441,0.8444,0.8465,0.8464,0.8463,0.8473,0.8481,0.8506,0.846,0.8461,0.8456,0.8454,0.8475,0.8478,0.8484,0.8528,0.8529,0.8485,0.8487,0.8488,0.8488,0,0,0,0,0,0,0,0.8439,0.8443,0.8485,0.8466,0.8464,0.8456,0.8457,0.8486,0.8478,0.846,0.8458,0.846,0.8475,0.8482,0.8485,0.8529,0.8485,0.8487,0.8489,0.849,0.8615,0.8617,0,0,0,0,0,0,0.844,0.8442,0.8485,0.8486,0.8447,0.8459,0.846,0.8472,0.8477,0.8476,0.8461,0.8458,0.8479,0.8482,0.8485,0.8544,0.8488,0.849,0.8491,0.8613,0.8615,0.8617,0,0,0,0,0,0,0.8438,0.8444,0.8484,0.8463,0.8468,0.8462,0.8475,0.8473,0.848,0.8478,0.8477,0.8471,0.8478,0.8482,0.8517,0.8544,0.8491,0.8493,0.8611,0.8614,0.8616,0.8661,0,0,0,0,0,0,0.8437,0.8443,0.8462,0.8464,0.8469,0.8515,0.8477,0.8474,0.8484,0.848,0.8486,0.8486,0.8477,0.8514,0.8519,0.8546,0.8495,0.8608,0.8612,0.8615,0.8657,0.8665,0.8672,0,0,0,0,0,0.8435,0.8474,0.8463,0.8468,0.8491,0.8517,0.852,0.8508,0.8487,0.8505,0.8504,0.8485,0.854,0.8517,0.8524,0.8552,0.8606,0.8611,0.8615,0.8654,0.8664,0.8672,0,0,0,0,0,0,0.8476,0.8474,0.8461,0.8502,0.851,0.851,0.8534,0.8518,0.8533,0.8529,0.8514,0.8516,0.8554,0.8556,0.8531,0.86,0.857,0.8575,0.8597,0.8606,0.8614,0.8613,0.8497,0,0,0,0,0,0.8489,0.8509,0.8507,0.8543,0.8548,0.854,0.8551,0.8541,0.8548,0.8552,0.8553,0.8561,0.858,0.8593,0.8611,0.8657,0.8659,0.868,0.8687,0.8693,0.8698,0.8724,0.8733,0.8631,0.8631,0.8631,0,0,0.8518,0.852,0.8533,0.8551,0.8556,0.8578,0.8543,0.8567,0.8584,0.8556,0.8589,0.859,0.8599,0.864,0.8658,0.8643,0.8727,0.8698,0.8703,0.8705,0.8729,0.8739,0.8748,0.8634,0.8634,0.8633,0,0,0.8582,0.8584,0.8615,0.862,0.8627,0.8622,0.863,0.8633,0.8632,0.8665,0.8645,0.8664,0.8697,0.8704,0.8712,0.8779,0.8763,0.8785,0.8824,0.8849,0.8857,0.8864,0.8889,0.8897,0.879,0.879,0.879,0,0.8617,0.8648,0.8633,0.8659,0.8668,0.8643,0.8674,0.868,0.8693,0.8701,0.8683,0.8724,0.8728,0.8771,0.8787,0.8795,0.8803,0.8785,0.8857,0.8864,0.887,0.8893,0.8903,0.8793,0.8793,0.8792,0.8792,0,0.8691,0.8713,0.8737,0.8749,0.8761,0.879,0.878,0.8794,0.8783,0.878,0.8815,0.8818,0.8837,0.8846,0.8836,0.8888,0.8878,0.8859,0.8828,0.8883,0.8905,0.8913,0.8797,0.8796,0.8795,0.8794,0,0,0.8781,0.8784,0.8794,0.8799,0.8805,0.8823,0.885,0.8867,0.888,0.889,0.8913,0.8942,0.8924,0.8933,0.8924,0.8946,0.8999,0.8924,0.8924,0.8939,0.9058,0.9073,0.9083,0.8988,0.899,0.8991,0.9057,0,0.8844,0.8891,0.8879,0.8926,0.8947,0.8923,0.8947,0.8954,0.8952,0.897,0.8968,0.8989,0.8963,0.8969,0.8989,0.8988,0.9023,0.8983,0.9011,0.9012,0.9011,0.9094,0.911,0.9172,0.9065,0.9067,0.9068,0,0.8924,0.8936,0.8986,0.8989,0.8997,0.9019,0.9034,0.9051,0.9058,0.9055,0.9066,0.9052,0.9081,0.9049,0.9089,0.9062,0.9073,0.9074,0.9076,0.9079,0.9044,0.91,0.9191,0.9201,0.9081,0.908,0.9079,0,0.8986,0.9015,0.9048,0.9053,0.9058,0.9074,0.9077,0.9082,0.9094,0.9107,0.9114,0.913,0.914,0.9153,0.9145,0.9123,0.9186,0.9154,0.9186,0.9186,0.9201,0.92,0.9296,0.9206,0.9206,0.9206,0.9206,0,0.9058,0.909,0.9076,0.9096,0.9131,0.9117,0.9152,0.9152,0.9157,0.9178,0.9159,0.9179,0.9166,0.9186,0.9179,0.9214,0.9218,0.9217,0.9215,0.9219,0.9219,0.9227,0.9222,0.9209,0.9208,0.9207,0.9207,0,0.9134,0.9125,0.916,0.9161,0.9162,0.9188,0.9189,0.9209,0.9205,0.9232,0.9237,0.9232,0.9254,0.9246,0.927,0.9266,0.931,0.9302,0.9307,0.9305,0.9338,0.9335,0.9442,0.9456,0.9357,0.9358,0.9358,0,0.9181,0.9204,0.9207,0.922,0.9223,0.9243,0.9254,0.9242,0.9254,0.9265,0.9284,0.9304,0.9319,0.9355,0.9354,0.9372,0.9365,0.9401,0.9368,0.9371,0.9367,0.9366,0.9369,0.9408,0.941,0.941,0.9411,0,0.9265,0.926,0.9276,0.9292,0.9305,0.9317,0.9326,0.9338,0.9326,0.9341,0.9363,0.9375,0.9398,0.9419,0.9435,0.9439,0.9424,0.9422,0.943,0.9435,0.9437,0.9437,0.9326,0.9419,0.9419,0.9418,0.9418,0.9417,0.9329,0.9348,0.9354,0.9373,0.9379,0.9389,0.9407,0.9405,0.9423,0.9441,0.9433,0.9458,0.9466,0.9486,0.9492,0.9513,0.9499,0.9511,0.9514,0.9517,0.9522,0.9433,0.9515,0.9515,0.9515,0.9515,0.9515,0,0.9413,0.9415,0.9433,0.9447,0.9462,0.9445,0.9455,0.9469,0.9492,0.95,0.9515,0.9541,0.956,0.9561,0.9579,0.9596,0.9589,0.9601,0.96,0.9602,0.9533,0.9524,0.9606,0.9606,0.9606,0.9606,0.9606,0.9606,0.9459,0.9492,0.9487,0.9523,0.9526,0.955,0.9557,0.9567,0.9573,0.9602,0.9618,0.9618,0.9623,0.9642,0.966,0.9659,0.9668,0.9682,0.968,0.9615,0.9606,0.9598,0.9589,0.9684,0.9684,0.9747,0.9747,0.9748]},{"header":{"parameterUnit":"m.s-1","parameterCategory":1,"la1":30.2991,"la2":30.254,"lo1":-89.0895,"lo2":-89.0444,"dy":0.0017,"dx":0.0017,"nx":28,"ny":28,"refTime":"2024-03-14T09:00:00:Z","depth":0,"parameterNumber":3,"parameterNumberName":"V-component_of_WINDS"},"data":[0,0,0,0,0,0,0,0,0,0,0,0,0,0,0,0,0,0,0,0,0,0,0,0,0,0,0,0,0,0,0,0,0,0,0,0,0,0,0,0,0,0,0,0,0,0,0,0,0,0,0,0,0,0,0,0,0,0,1.3508,1.3507,0,1.345,1.3449,1.3449,1.3387,1.3386,1.3385,1.3384,1.3323,1.3322,1.3321,0,0,0,0,0,0,0,0,0,0,0,0,0,1.3561,1.3561,1.3508,1.3507,1.3506,1.345,1.3449,1.3449,1.3387,1.3386,1.3385,1.3384,1.3323,1.3322,1.3321,0,0,0,0,0,0,0,0,0,0,0,0,0,1.3524,1.3561,1.3508,1.3469,1.3465,1.345,1.3449,1.3448,1.3387,1.3386,1.3384,1.3383,1.3323,1.3322,1.3321,1.334,0,0,1.3317,1.3316,0,0,0,0,0,0,0,0,1.3527,1.3522,1.3475,1.3471,1.3467,1.3424,1.3446,1.3412,1.3387,1.3416,1.3384,1.3382,1.3357,1.3353,1.3345,1.3337,1.3334,1.3317,1.3316,1.3316,1.3315,0,0,0,0,0,0,0,1.3529,1.3525,1.3485,1.3475,1.3469,1.3453,1.3446,1.3439,1.3395,1.3414,1.3409,1.3403,1.3355,1.3347,1.3343,1.3333,1.3317,1.3316,1.3315,1.3315,1.3336,1.3337,0,0,0,0,0,0,1.3538,1.3527,1.3487,1.3483,1.3494,1.3453,1.3446,1.3439,1.3395,1.3387,1.3404,1.3401,1.3349,1.3345,1.3341,1.3359,1.3316,1.3314,1.3314,1.3334,1.3336,1.3337,0,0,0,0,0,0,1.3539,1.3535,1.3489,1.3504,1.3497,1.3454,1.3447,1.3439,1.343,1.3388,1.3379,1.3404,1.3348,1.3343,1.334,1.3356,1.3314,1.3313,1.3333,1.3335,1.3337,1.3397,0,0,0,0,0,0,1.3541,1.3536,1.3543,1.3504,1.3496,1.3491,1.3448,1.3439,1.3429,1.3423,1.3385,1.3378,1.3347,1.3342,1.3339,1.3354,1.3312,1.3331,1.3334,1.3336,1.3393,1.3401,1.3407,0,0,0,0,0,1.3543,1.3562,1.3544,1.354,1.3505,1.3492,1.3487,1.3451,1.343,1.3437,1.3409,1.3379,1.3355,1.3343,1.3338,1.3353,1.333,1.3333,1.3336,1.339,1.3399,1.3407,0,0,0,0,0,0,1.3604,1.3557,1.3536,1.3543,1.3522,1.3481,1.3489,1.3462,1.3445,1.3441,1.3396,1.3388,1.3391,1.3371,1.3359,1.3368,1.3338,1.334,1.3381,1.3389,1.3396,1.3401,1.3311,0,0,0,0,0,1.3618,1.3612,1.3571,1.3581,1.3572,1.3532,1.3525,1.3499,1.3475,1.3466,1.3438,1.3415,1.3402,1.3394,1.338,1.339,1.338,1.3398,1.3405,1.3411,1.3413,1.3416,1.3423,1.3347,1.3347,1.3347,0,0,1.3647,1.3621,1.362,1.3593,1.3573,1.3567,1.3525,1.3521,1.3515,1.3465,1.3461,1.344,1.3411,1.3415,1.3415,1.3399,1.3432,1.3414,1.3419,1.3418,1.342,1.3427,1.3433,1.3349,1.3349,1.3348,0,0,1.3698,1.3677,1.3683,1.3665,1.3636,1.3609,1.3611,1.3574,1.3558,1.3554,1.3516,1.3508,1.3487,1.3468,1.3455,1.3497,1.3468,1.3494,1.353,1.3533,1.3539,1.3544,1.3559,1.3564,1.3496,1.3496,1.3497,0,1.3738,1.3728,1.369,1.3688,1.3676,1.3631,1.3636,1.3619,1.3587,1.358,1.3562,1.3534,1.3512,1.351,1.352,1.3512,1.3511,1.3498,1.3541,1.3546,1.355,1.3563,1.3569,1.35,1.3499,1.3499,1.3499,0,1.3778,1.3772,1.378,1.3751,1.374,1.3742,1.3703,1.3697,1.3672,1.3647,1.3642,1.3613,1.3592,1.3589,1.3565,1.3584,1.3574,1.355,1.3519,1.3561,1.3573,1.3578,1.3504,1.3503,1.3502,1.3501,0,0,1.3866,1.3815,1.3819,1.3804,1.3769,1.3763,1.3762,1.3742,1.3737,1.3716,1.3713,1.3696,1.3672,1.3658,1.3631,1.3634,1.3668,1.3608,1.3607,1.362,1.3686,1.3705,1.3712,1.3648,1.3649,1.365,1.3689,0,1.391,1.3906,1.3871,1.3877,1.387,1.3826,1.3825,1.3802,1.3779,1.3768,1.3741,1.373,1.37,1.3691,1.3692,1.3664,1.3681,1.366,1.3644,1.3644,1.3654,1.3718,1.3738,1.3777,1.3693,1.3694,1.3694,0,1.3961,1.3944,1.3949,1.3913,1.3909,1.3908,1.3887,1.3878,1.3851,1.3833,1.3817,1.3786,1.3781,1.3751,1.3743,1.373,1.3721,1.3706,1.3707,1.3704,1.3672,1.3717,1.3788,1.3794,1.3701,1.3701,1.37,0,1.4024,1.4002,1.4002,1.3991,1.3949,1.395,1.3932,1.3904,1.3894,1.3874,1.3867,1.3847,1.3836,1.382,1.3784,1.3766,1.378,1.3747,1.3764,1.3765,1.3769,1.377,1.384,1.3764,1.3764,1.3763,1.3763,0,1.4077,1.4082,1.403,1.403,1.4034,1.3993,1.3998,1.3975,1.3951,1.3945,1.3905,1.39,1.3852,1.3841,1.3813,1.381,1.3805,1.379,1.3782,1.3794,1.3796,1.3788,1.3784,1.3765,1.3765,1.3764,1.3764,0,1.4148,1.4114,1.4111,1.4071,1.4061,1.4066,1.4031,1.4029,1.4002,1.3996,1.3991,1.3949,1.3935,1.3897,1.3872,1.3852,1.3857,1.3843,1.3867,1.3862,1.3881,1.388,1.3948,1.3955,1.3875,1.3876,1.3877,0,1.4185,1.4188,1.4148,1.4142,1.4126,1.4116,1.4106,1.4065,1.4056,1.4024,1.4026,1.4008,1.3992,1.397,1.3936,1.3917,1.3902,1.3927,1.3898,1.3909,1.3902,1.3902,1.3902,1.3933,1.3935,1.3935,1.3936,0,1.4253,1.4235,1.4222,1.4203,1.4192,1.4175,1.4155,1.4152,1.4106,1.4097,1.4082,1.4069,1.4044,1.4026,1.4001,1.3981,1.3951,1.3945,1.3948,1.396,1.3974,1.3966,1.3884,1.3944,1.3943,1.3943,1.3942,1.3942,1.4307,1.4308,1.428,1.4266,1.4248,1.423,1.4226,1.4199,1.4186,1.4163,1.4139,1.4126,1.4097,1.4061,1.4043,1.4031,1.4016,1.402,1.4021,1.4023,1.4028,1.3975,1.4027,1.4026,1.4026,1.4026,1.4026,0,1.4373,1.4353,1.4341,1.4315,1.4304,1.4277,1.4254,1.4246,1.4236,1.4212,1.4197,1.4179,1.4161,1.4126,1.4105,1.4103,1.4088,1.4098,1.4098,1.4094,1.4043,1.4043,1.4111,1.4111,1.4111,1.4111,1.4111,1.4111,1.4406,1.4405,1.4384,1.4373,1.4352,1.434,1.4329,1.4312,1.4293,1.4275,1.4261,1.4238,1.4209,1.4186,1.4168,1.4158,1.4152,1.4167,1.4153,1.4106,1.4098,1.409,1.409,1.4166,1.4166,1.4204,1.4205,1.4205]}]]